This is the latest recevied weather packets stored in our database for station/object KU9TRY. If no packets are shown the sender has not sent any weather packets the latest 10 day(s).
| Time | Temp. | Humidity | Pressure | Rain* | Wind** | Luminosity | Snow |
|---|---|---|---|---|---|---|---|
| 1787687945 | 30° C | 43% | 1017.6 hPa | 0 mm | - | 48 W/m² | - |
| 1787687641 | 30.56° C | 40% | 1017.7 hPa | 0 mm | - | 51 W/m² | - |
| 1787687336 | 30.56° C | 43% | 1017.5 hPa | 0 mm | - | 52 W/m² | - |
| 1787687031 | 30° C | 43% | 1017.6 hPa | 0 mm | - | 53 W/m² | - |
| 1787686727 | 30° C | 42% | 1017.8 hPa | 0 mm | - | 54 W/m² | - |
| 1787686423 | 30° C | 42% | 1017.8 hPa | 0 mm | - | 54 W/m² | - |
| 1787686118 | 30° C | 41% | 1017.8 hPa | 0 mm | - | 54 W/m² | - |
| 1787685813 | 30.56° C | 43% | 1017.8 hPa | 0 mm | - | 55 W/m² | - |
| 1787685508 | 30.56° C | 40% | 1017.9 hPa | 0 mm | - | 55 W/m² | - |
| 1787685207 | 30° C | 41% | 1017.7 hPa | 0 mm | - | 57 W/m² | - |
| 1787684903 | 30° C | 41% | 1017.7 hPa | 0 mm | - | 58 W/m² | - |
| 1787684599 | 30° C | 41% | 1017.8 hPa | 0 mm | - | 70 W/m² | - |
| 1787684298 | 30° C | 42% | 1017.9 hPa | 0 mm | - | 57 W/m² | - |
| 1787683994 | 30° C | 44% | 1017.9 hPa | 0 mm | - | 57 W/m² | - |
| 1787683692 | 30° C | 43% | 1017.9 hPa | 0 mm | - | 64 W/m² | - |
| 1787683389 | 30° C | 44% | 1017.9 hPa | 0 mm | - | 59 W/m² | - |
| 1787683085 | 30° C | 43% | 1017.9 hPa | 0 mm | - | 60 W/m² | - |
| 1787682781 | 30° C | 42% | 1017.9 hPa | 0 mm | - | 61 W/m² | - |
| 1787682477 | 30° C | 43% | 1018.2 hPa | 0 mm | - | 61 W/m² | - |
| 1787682173 | 30° C | 44% | 1018.1 hPa | 0 mm | - | 63 W/m² | - |
| 1787681868 | 29.44° C | 43% | 1018.2 hPa | 0 mm | - | 144 W/m² | - |
| 1787681567 | 30° C | 44% | 1018.3 hPa | 0 mm | - | 63 W/m² | - |
| 1787681263 | 30° C | 45% | 1018.3 hPa | 0 mm | - | 63 W/m² | - |
| 1787680958 | 29.44° C | 43% | 1018.4 hPa | 0 mm | - | 62 W/m² | - |
| 1787680657 | 28.89° C | 47% | 1018.6 hPa | 0 mm | - | 65 W/m² | - |
* Rain latest hour (hover to see other rain measurements)
** Current wind speed in m/s (hover to see current wind gust speed)